| time (UTC) | temp C | wind direction | speed KPH | gust KPH | rain 1hr cm | rain 24hr cm | rain mn cm | humidity % | barometer mb |
| 20260508214556 | 23 | 115 | 8.0 | 16.1 | 0.00 | 0.05 | 0.05 | 94 | 1009.8 |
| 20260508213053 | 22 | 83 | 9.7 | 12.9 | 0.00 | 0.05 | 0.05 | 94 | 1009.8 |
| 20260508211552 | 22 | 121 | 8.0 | 12.9 | 0.00 | 0.05 | 0.05 | 94 | 1010.0 |
| 20260508210048 | 22 | 113 | 4.8 | 12.9 | 0.00 | 0.05 | 0.05 | 94 | 1010.4 |
| 20260508204544 | 22 | 73 | 6.4 | 12.9 | 0.00 | 0.05 | 0.05 | 94 | 1010.8 |
| 20260508203043 | 22 | 107 | 6.4 | 14.5 | 0.00 | 0.05 | 0.05 | 95 | 1010.8 |
| 20260508201537 | 21 | 90 | 8.0 | 16.1 | 0.00 | 0.05 | 0.05 | 95 | 1010.9 |
| 20260508200037 | 21 | 107 | 11.3 | 17.7 | 0.00 | 0.05 | 0.05 | 95 | 1011.2 |
| 20260508194540 | 21 | 97 | 8.0 | 14.5 | 0.00 | 0.05 | 0.05 | 95 | 1011.1 |
| 20260508193033 | 21 | 80 | 6.4 | 12.9 | 0.00 | 0.05 | 0.05 | 96 | 1011.3 |
| 20260508191536 | 20 | 86 | 6.4 | 14.5 | 0.00 | 0.05 | 0.05 | 96 | 1011.9 |
| 20260508190028 | 20 | 59 | 8.0 | 16.1 | 0.00 | 0.05 | 0.05 | 96 | 1011.9 |
| 20260508184528 | 20 | 77 | 4.8 | 11.3 | 0.00 | 0.05 | 0.05 | 95 | 1012.3 |
| 20260508183032 | 20 | 44 | 4.8 | 16.1 | 0.03 | 0.05 | 0.05 | 95 | 1012.2 |
| 20260508181525 | 20 | 55 | 6.4 | 14.5 | 0.03 | 0.05 | 0.05 | 96 | 1012.0 |
| 20260508180026 | 20 | 57 | 6.4 | 14.5 | 0.03 | 0.05 | 0.05 | 96 | 1012.1 |
| 20260508174522 | 20 | 74 | 6.4 | 14.5 | 0.03 | 0.05 | 0.05 | 96 | 1012.2 |
| 20260508173020 | 20 | 85 | 9.7 | 14.5 | 0.03 | 0.03 | 0.03 | 96 | 1012.4 |
| 20260508171518 | 20 | 90 | 4.8 | 9.7 | 0.03 | 0.03 | 0.03 | 96 | 1012.8 |
| 20260508170019 | 20 | 80 | 6.4 | 14.5 | 0.03 | 0.03 | 0.03 | 96 | 1013.0 |
| 20260508164516 | 20 | 51 | 4.8 | 9.7 | 0.03 | 0.03 | 0.03 | 95 | 1013.2 |
| 20260508163027 | 19 | 53 | 6.4 | 12.9 | 0.00 | 0.00 | 0.00 | 94 | 1013.5 |
| 20260508161514 | 20 | 50 | 4.8 | 9.7 | 0.00 | 0.00 | 0.00 | 94 | 1013.9 |
| 20260508160020 | 20 | 67 | 4.8 | 16.1 | 0.00 | 0.00 | 0.00 | 93 | 1013.7 |
| 20260508154516 | 19 | 52 | 6.4 | 12.9 | 0.00 | 0.00 | 0.00 | 93 | 1013.2 |
| 20260508153011 | 19 | 79 | 6.4 | 16.1 | 0.00 | 0.00 | 0.00 | 93 | 1013.0 |
| 20260508151512 | 19 | 10 | 3.2 | 12.9 | 0.00 | 0.00 | 0.00 | 94 | 1013.4 |
| 20260508150030 | 18 | 68 | 4.8 | 12.9 | 0.00 | 0.00 | 0.00 | 94 | 1013.2 |
| 20260508144510 | 18 | 312 | 3.2 | 9.7 | 0.00 | 0.00 | 0.00 | 94 | 1013.6 |
| 20260508143011 | 18 | 53 | 1.6 | 8.0 | 0.00 | 0.00 | 0.00 | 94 | 1013.5 |
| 20260508141508 | 18 | 80 | 0.0 | 9.7 | 0.00 | 0.00 | 0.00 | 94 | 1013.6 |
| 20260508140013 | 18 | 82 | 4.8 | 9.7 | 0.00 | 0.00 | 0.00 | 93 | 1013.6 |
| 20260508134507 | 18 | 82 | 3.2 | 6.4 | 0.00 | 0.00 | 0.00 | 93 | 1013.8 |
| 20260508133009 | 18 | 23 | 1.6 | 9.7 | 0.00 | 0.00 | 0.00 | 92 | 1013.9 |
| 20260508131506 | 18 | 88 | 4.8 | 11.3 | 0.00 | 0.00 | 0.00 | 92 | 1013.5 |
| 20260508130005 | 18 | 5 | 4.8 | 12.9 | 0.00 | 0.00 | 0.00 | 91 | 1013.7 |
| 20260508124506 | 18 | 19 | 3.2 | 14.5 | 0.00 | 0.00 | 0.00 | 91 | 1013.7 |
| 20260508123004 | 18 | 51 | 1.6 | 6.4 | 0.00 | 0.00 | 0.00 | 91 | 1013.6 |
| 20260508121503 | 18 | 91 | 3.2 | 9.7 | 0.00 | 0.00 | 0.00 | 90 | 1013.3 |
| 20260508120003 | 18 | 57 | 4.8 | 8.0 | 0.00 | 0.00 | 0.00 | 89 | 1013.7 |
| 20260508114503 | 18 | 26 | 4.8 | 8.0 | 0.00 | 0.00 | 0.00 | 89 | 1014.0 |
| 20260508113004 | 18 | 302 | 3.2 | 9.7 | 0.00 | 0.00 | 0.00 | 89 | 1014.1 |
| 20260508111503 | 18 | 332 | 3.2 | 12.9 | 0.00 | 0.00 | 0.00 | 89 | 1014.0 |
| 20260508110111 | 18 | 14 | 1.6 | 12.9 | 0.00 | 0.00 | 0.00 | 89 | 1013.9 |
| 20260508104613 | 18 | 330 | 1.6 | 11.3 | 0.00 | 0.00 | 0.00 | 89 | 1013.8 |
| 20260508103103 | 18 | 71 | 3.2 | 8.0 | 0.00 | 0.00 | 0.00 | 88 | 1013.5 |
| 20260508101558 | 18 | 306 | 1.6 | 8.0 | 0.00 | 0.00 | 0.00 | 88 | 1013.9 |
| 20260508100058 | 18 | 42 | 4.8 | 12.9 | 0.00 | 0.00 | 0.00 | 88 | 1013.4 |
| 20260508094556 | 18 | 84 | 4.8 | 9.7 | 0.00 | 0.00 | 0.00 | 87 | 1013.4 |
| 20260508093056 | 18 | 18 | 6.4 | 17.7 | 0.00 | 0.00 | 0.00 | 86 | 1013.7 |
| 20260508091608 | 18 | 5 | 3.2 | 12.9 | 0.00 | 0.00 | 0.00 | 86 | 1013.9 |
| 20260508090055 | 18 | 39 | 1.6 | 6.4 | 0.00 | 0.00 | 0.00 | 86 | 1013.1 |
| 20260508084602 | 18 | 15 | 3.2 | 9.7 | 0.00 | 0.00 | 0.00 | 86 | 1013.1 |
| 20260508083058 | 18 | 360 | 3.2 | 9.7 | 0.00 | 0.00 | 0.00 | 86 | 1013.6 |
| 20260508081551 | 18 | 343 | 3.2 | 9.7 | 0.00 | 0.00 | 0.00 | 85 | 1013.4 |
| 20260508074547 | 18 | 350 | 3.2 | 8.0 | 0.00 | 0.00 | 0.00 | 85 | 1013.8 |
| 20260508073054 | 18 | 336 | 3.2 | 9.7 | 0.00 | 0.00 | 0.00 | 85 | 1014.2 |
| 20260508071545 | 18 | 5 | 4.8 | 11.3 | 0.00 | 0.00 | 0.00 | 85 | 1014.3 |
| 20260508070044 | 18 | 21 | 4.8 | 8.0 | 0.00 | 0.00 | 0.00 | 85 | 1014.4 |
| 20260508064547 | 19 | 355 | 4.8 | 12.9 | 0.00 | 0.00 | 0.00 | 85 | 1014.3 |
| 20260508063043 | 19 | 22 | 3.2 | 8.0 | 0.00 | 0.00 | 0.00 | 85 | 1014.4 |
| 20260508061542 | 19 | 355 | 1.6 | 6.4 | 0.00 | 0.00 | 0.00 | 85 | 1014.4 |
| 20260508060039 | 19 | 46 | 1.6 | 6.4 | 0.00 | 0.00 | 0.00 | 85 | 1014.0 |
| 20260508054545 | 18 | 28 | 3.2 | 8.0 | 0.00 | 0.00 | 0.00 | 85 | 1013.6 |
| 20260508053032 | 18 | 351 | 1.6 | 6.4 | 0.00 | 0.00 | 0.00 | 84 | 1014.2 |
| 20260508051537 | 18 | 348 | 1.6 | 9.7 | 0.00 | 0.00 | 0.00 | 84 | 1014.3 |
| 20260508050033 | 18 | 350 | 3.2 | 9.7 | 0.00 | 0.00 | 0.00 | 84 | 1014.4 |
| 20260508044528 | 18 | 355 | 3.2 | 9.7 | 0.00 | 0.00 | 0.00 | 84 | 1014.5 |
| 20260508043027 | 18 | 322 | 3.2 | 12.9 | 0.00 | 0.00 | 0.00 | 84 | 1014.4 |
| 20260508041527 | 18 | 360 | 3.2 | 9.7 | 0.00 | 0.00 | 0.00 | 84 | 1014.5 |
| 20260508040040 | 18 | 39 | 3.2 | 9.7 | 0.00 | 0.00 | 0.00 | 84 | 1014.3 |
| 20260508034538 | 18 | 34 | 1.6 | 9.7 | 0.00 | 0.00 | 0.00 | 84 | 1014.1 |
| 20260508033021 | 19 | 40 | 1.6 | 8.0 | 0.00 | 0.00 | 0.00 | 83 | 1013.9 |
| 20260508031522 | 18 | 22 | 4.8 | 17.7 | 0.00 | 0.00 | 0.00 | 82 | 1013.5 |
| 20260508030055 | 19 | 77 | 9.7 | 14.5 | 0.00 | 0.00 | 0.00 | 81 | 1013.6 |
| 20260508024551 | 19 | 55 | 4.8 | 9.7 | 0.00 | 0.00 | 0.00 | 81 | 1014.6 |
| 20260508023051 | 20 | 346 | 1.6 | 9.7 | 0.00 | 0.00 | 0.00 | 81 | 1014.6 |
| 20260508021551 | 20 | 39 | 1.6 | 9.7 | 0.00 | 0.00 | 0.00 | 80 | 1014.5 |
| 20260508020055 | 20 | 336 | 3.2 | 14.5 | 0.00 | 0.00 | 0.00 | 79 | 1014.9 |
| 20260508014550 | 20 | 321 | 3.2 | 14.5 | 0.00 | 0.00 | 0.00 | 78 | 1014.5 |
| 20260508013049 | 21 | 13 | 3.2 | 14.5 | 0.00 | 0.00 | 0.00 | 78 | 1014.3 |
| 20260508011549 | 21 | 309 | 4.8 | 16.1 | 0.00 | 0.00 | 0.00 | 77 | 1014.5 |
| 20260508010048 | 22 | 61 | 3.2 | 14.5 | 0.00 | 0.00 | 0.00 | 76 | 1014.2 |
| 20260508004551 | 22 | 49 | 6.4 | 14.5 | 0.00 | 0.00 | 0.00 | 76 | 1014.4 |
| 20260508003050 | 22 | 67 | 3.2 | 14.5 | 0.00 | 0.00 | 0.00 | 75 | 1014.5 |
| 20260508001546 | 22 | 26 | 4.8 | 16.1 | 0.00 | 0.00 | 0.00 | 77 | 1014.3 |
| 20260508000047 | 23 | 315 | 3.2 | 16.1 | 0.00 | 0.00 | 0.00 | 76 | 1014.6 |
| 20260507234553 | 23 | 347 | 6.4 | 17.7 | 0.00 | 0.00 | 0.00 | 76 | 1014.5 |
| 20260507233108 | 23 | 36 | 4.8 | 14.5 | 0.00 | 0.00 | 0.00 | 76 | 1014.5 |
| 20260507231546 | 23 | 5 | 4.8 | 16.1 | 0.00 | 0.00 | 0.00 | 76 | 1014.5 |
| 20260507230047 | 24 | 65 | 3.2 | 19.3 | 0.00 | 0.00 | 0.00 | 76 | 1014.6 |
| 20260507224544 | 24 | 9 | 4.8 | 17.7 | 0.00 | 0.00 | 0.00 | 76 | 1014.3 |
| 20260507223055 | 24 | 50 | 8.0 | 20.9 | 0.00 | 0.00 | 0.00 | 75 | 1014.1 |
| 20260507221543 | 24 | 355 | 4.8 | 17.7 | 0.00 | 0.00 | 0.00 | 76 | 1014.0 |
| 20260507220040 | 24 | 29 | 6.4 | 16.1 | 0.00 | 0.00 | 0.00 | 75 | 1013.9 |